Home > Weather > Elbląg > Past weeks

Flag for Poland Past Weather in Elbląg, Poland — Yesterday and Last 2 Weeks

Now
52 °F

Low clouds.


Feels Like: 52 °F
Forecast: 48 / 71 °F
Wind: 3 mph from North

Location: Hel

Current Time: May 26, 2016 at 8:54:41 AM

Latest Report: May 26, 2016 at 7:00 AM


Visibility: 13 mi

Pressure: 30.00 "Hg

Humidity: 87%

Dew Point: 49 °F

Location of ElblągLocation

Past Weather in Elbląg — Graph

°F

Elbląg Temperature Yesterday

Maximum temperature yesterday: 73 °F (at 11:00 AM)
Minimum temperature yesterday: 53 °F (at 4:00 AM)
Average temperature yesterday: 60 °F

High & Low Weather Summary for the Past Weeks

 TemperatureHumidityPressure
High74 °F (May 23, 2:00 PM)96% (May 13, 5:00 AM)30.06 "Hg (May 13, 5:00 AM)
Low44 °F (May 19, 3:00 AM)45% (May 14, 2:00 PM)29.47 "Hg (May 13, 11:00 PM)
Average56 °F79%29.84 "Hg
* Reported May 11 7:00 AM — May 26 7:00 AM, Elbląg, Weather by CustomWeather, © 2016

Note: Actual official high and low records may vary slightly from our data, if they occured in-between our weather recording intervals... More about our weather records

Advertising

Elbląg Weather History for the Previous 24 Hours

Scroll right to see more
 ConditionsComfort  
Time TempWeatherWind HumidityBarometerVisibility
7:00 AM
Thu, May 26
52 °FLow clouds.3 mph87%30.00 "Hg12 mi
6:00 AM52 °FLow clouds.3 mph88%29.98 "Hg12 mi
5:00 AM52 °FLow clouds.3 mph91%29.98 "Hg12 mi
4:00 AM51 °FLow clouds.5 mph93%29.96 "Hg12 mi
3:00 AM52 °FFog.5 mph94%29.96 "Hg5 mi
2:00 AM52 °FFog.3 mph94%29.96 "Hg2 mi
1:00 AM53 °FLow clouds.5 mph91%29.96 "Hg10 mi
12:00 AM53 °FLow clouds.3 mph90%29.95 "Hg10 mi
11:00 PM
Wed, May 25
54 °FLow clouds.5 mph89%29.94 "Hg10 mi
10:00 PM54 °FLow clouds.5 mph89%29.94 "Hg10 mi
9:00 PM55 °FLow clouds.5 mph87%29.93 "Hg10 mi
8:00 PM56 °FPartly sunny.3 mph88%29.91 "Hg12 mi
7:00 PM56 °FLow clouds.5 mph88%29.90 "Hg10 mi
6:00 PM57 °FLow clouds.6 mph85%29.89 "Hg9 mi
5:00 PM62 °FScattered clouds.5 mph74%29.88 "Hg12 mi
4:00 PM65 °FScattered clouds.5 mph71%29.88 "Hg12 mi
3:00 PM67 °FPassing clouds.6 mph57%29.88 "Hg16 mi
2:00 PM68 °FPassing clouds.5 mph59%29.88 "Hg16 mi
1:00 PM69 °FPassing clouds.5 mph57%29.88 "Hg16 mi
12:00 PM70 °FPassing clouds.5 mph54%29.87 "Hg16 mi
11:00 AM73 °FPassing clouds.3 mph46%29.87 "Hg11 mi
10:00 AM69 °FPassing clouds.2 mph63%29.86 "Hg19 mi
9:00 AM65 °FPassing clouds.3 mph72%29.86 "Hg19 mi
8:00 AM62 °FPassing clouds.1 mph77%29.86 "Hg19 mi
Weather by CustomWeather, © 2016

See weather overviewHow to use our weather pages